When you browse on this site, cookies collect data to enhance your experience and personalize the content and advertising you see.
Visit our Privacy Policy to learn more. By continuing to use the site, you agree to this use of cookies and data.
  • In Spain
  • List of Countries
  • For 7 days
  • Water Temperature
  • Satellite Maps
  • Weather Map
  • Weather Widgets
  • user-avatar
    Login

    Hourly Weather Dobrich

    Today, 20 January, Sunday

    Time Temperature Precipitation Wind Pressure Humidity
    00:00 0°C° 0.4 mm 4 mps 743 mmHg 94%
    01:00 0°C° 0.4 mm 4 mps 743 mmHg 94%
    02:00 0°C° 0 mm 4 mps 743 mmHg 94%
    03:00 0°C° 0.3 mm 4 mps 742 mmHg 95%
    04:00 +1°C° 0.3 mm 4 mps 742 mmHg 95%
    05:00 +1°C° 0.3 mm 4 mps 742 mmHg 96%
    06:00 +1°C° 0.2 mm 4 mps 742 mmHg 96%
    07:00 +1°C° 0.2 mm 4 mps 741 mmHg 97%
    08:00 +1°C° 0 mm 4 mps 741 mmHg 97%
    09:00 +3°C° 0 mm 4 mps 741 mmHg 97%
    10:00 +3°C° 0 mm 4 mps 741 mmHg 97%
    11:00 +4°C° 0 mm 4 mps 741 mmHg 97%
    12:00 +4°C° 0 mm 4 mps 740 mmHg 97%
    13:00 +5°C° 0 mm 4 mps 740 mmHg 96%
    14:00 +5°C° 0 mm 4 mps 739 mmHg 96%
    15:00 +5°C° 0 mm 4 mps 739 mmHg 96%
    16:00 +5°C° 0 mm 3 mps 739 mmHg 97%
    17:00 +5°C° 0 mm 3 mps 738 mmHg 97%
    18:00 +5°C° 0.1 mm 3 mps 738 mmHg 97%
    19:00 +5°C° 0.1 mm 3 mps 738 mmHg 97%
    20:00 +5°C° 0.1 mm 3 mps 738 mmHg 98%
    21:00 +5°C° 0.1 mm 3 mps 738 mmHg 97%
    22:00 +5°C° 0.1 mm 3 mps 738 mmHg 97%
    23:00 +5°C° 0.1 mm 3 mps 738 mmHg 96%

    Tomorrow, 21 January, Monday

    Time Temperature Precipitation Wind Pressure Humidity
    00:00 +4°C° 0.1 mm 3 mps 738 mmHg 96%
    01:00 +3°C° 0.1 mm 3 mps 737 mmHg 96%
    02:00 +3°C° 0.1 mm 4 mps 737 mmHg 95%
    03:00 +1°C° 0 mm 4 mps 738 mmHg 94%
    04:00 +1°C° 0 mm 5 mps 738 mmHg 93%
    05:00 0°C° 0 mm 5 mps 738 mmHg 92%
    06:00 0°C° 0 mm 5 mps 738 mmHg 92%
    07:00 -1°C° 0 mm 5 mps 739 mmHg 92%
    08:00 -1°C° 0 mm 5 mps 739 mmHg 92%
    09:00 -1°C° 0 mm 5 mps 740 mmHg 89%
    10:00 0°C° 0 mm 5 mps 740 mmHg 86%
    11:00 0°C° 0 mm 5 mps 741 mmHg 84%
    12:00 +1°C° 0 mm 5 mps 741 mmHg 81%
    13:00 +1°C° 0 mm 5 mps 741 mmHg 78%
    14:00 +1°C° 0 mm 4 mps 741 mmHg 75%
    15:00 +1°C° 0 mm 4 mps 741 mmHg 77%
    16:00 +1°C° 0 mm 3 mps 742 mmHg 79%
    17:00 0°C° 0 mm 3 mps 742 mmHg 82%
    18:00 -1°C° 0 mm 3 mps 742 mmHg 84%
    19:00 -1°C° 0 mm 3 mps 743 mmHg 86%
    20:00 -2°C° 0 mm 2 mps 743 mmHg 88%
    21:00 -2°C° 0 mm 2 mps 743 mmHg 88%
    22:00 -2°C° 0 mm 2 mps 743 mmHg 87%
    23:00 -3°C° 0 mm 2 mps 743 mmHg 87%

    Day after tomorrow, 22 January, Tuesday

    Time Temperature Precipitation Wind Pressure Humidity
    00:00 -3°C° 0 mm 2 mps 743 mmHg 87%
    01:00 -3°C° 0 mm 2 mps 743 mmHg 87%
    02:00 -3°C° 0 mm 2 mps 743 mmHg 87%
    03:00 -3°C° 0 mm 2 mps 743 mmHg 89%
    04:00 -3°C° 0 mm 2 mps 743 mmHg 91%
    05:00 -3°C° 0 mm 2 mps 742 mmHg 92%
    06:00 -2°C° 0 mm 2 mps 742 mmHg 92%
    07:00 -2°C° 0 mm 3 mps 742 mmHg 91%
    08:00 -1°C° 0 mm 3 mps 743 mmHg 90%
    09:00 -1°C° 0 mm 3 mps 742 mmHg 87%
    10:00 -1°C° 0 mm 4 mps 742 mmHg 84%
    11:00 0°C° 0 mm 4 mps 742 mmHg 81%
    12:00 0°C° 0 mm 4 mps 742 mmHg 81%
    13:00 +1°C° 0 mm 5 mps 741 mmHg 81%
    14:00 +1°C° 0 mm 5 mps 740 mmHg 81%
    15:00 +1°C° 0 mm 5 mps 740 mmHg 84%
    16:00 0°C° 0 mm 5 mps 739 mmHg 87%
    17:00 0°C° 0 mm 4 mps 739 mmHg 90%
    18:00 0°C° 0.2 mm 5 mps 739 mmHg 91%
    19:00 0°C° 0.2 mm 5 mps 738 mmHg 92%
    20:00 0°C° 0.2 mm 5 mps 738 mmHg 93%
    21:00 +1°C° 0 mm 6 mps 738 mmHg 93%
    22:00 +1°C° 0 mm 6 mps 737 mmHg 94%
    23:00 +1°C° 0 mm 6 mps 737 mmHg 94%

    23 January, Wednesday

    Time Temperature Precipitation Wind Pressure Humidity
    00:00 +1°C° 0 mm 6 mps 736 mmHg 94%
    01:00 +2°C° 0 mm 6 mps 736 mmHg 94%
    02:00 +2°C° 0 mm 6 mps 735 mmHg 94%
    03:00 +2°C° 0.2 mm 6 mps 734 mmHg 95%
    04:00 +3°C° 0.2 mm 7 mps 733 mmHg 95%
    05:00 +3°C° 0.2 mm 7 mps 733 mmHg 96%
    06:00 +3°C° 2.2 mm 7 mps 732 mmHg 96%
    07:00 +4°C° 2.2 mm 7 mps 732 mmHg 96%
    08:00 +4°C° 2.2 mm 7 mps 731 mmHg 96%
    09:00 +5°C° 0 mm 7 mps 731 mmHg 92%
    10:00 +6°C° 0 mm 7 mps 731 mmHg 88%
    11:00 +7°C° 0 mm 8 mps 731 mmHg 84%
    12:00 +9°C° 0 mm 8 mps 731 mmHg 79%
    13:00 +10°C° 0 mm 8 mps 730 mmHg 73%
    14:00 +11°C° 0 mm 8 mps 730 mmHg 67%
    15:00 +10°C° 0 mm 7 mps 730 mmHg 70%
    16:00 +9°C° 0 mm 6 mps 730 mmHg 73%
    17:00 +8°C° 0 mm 5 mps 730 mmHg 76%
    18:00 +8°C° 0 mm 5 mps 730 mmHg 78%
    19:00 +8°C° 0 mm 5 mps 731 mmHg 81%
    20:00 +7°C° 0 mm 6 mps 731 mmHg 83%
    21:00 +7°C° 0 mm 6 mps 731 mmHg 86%
    22:00 +7°C° 0 mm 5 mps 731 mmHg 88%
    23:00 +7°C° 0 mm 5 mps 732 mmHg 91%

    24 January, Thursday

    Time Temperature Precipitation Wind Pressure Humidity
    00:00 +7°C° 0 mm 5 mps 732 mmHg 91%
    01:00 +6°C° 0 mm 5 mps 732 mmHg 92%
    02:00 +6°C° 0 mm 4 mps 732 mmHg 93%
    03:00 +6°C° 0 mm 4 mps 732 mmHg 94%
    04:00 +6°C° 0 mm 4 mps 731 mmHg 95%
    05:00 +5°C° 0 mm 3 mps 731 mmHg 96%
    06:00 +7°C° 0.5 mm 3 mps 731 mmHg 96%
    07:00 +7°C° 0.5 mm 3 mps 731 mmHg 97%
    08:00 +7°C° 0.5 mm 3 mps 732 mmHg 98%
    09:00 +7°C° 0.2 mm 4 mps 732 mmHg 94%
    10:00 +7°C° 0.2 mm 5 mps 732 mmHg 90%
    11:00 +8°C° 0.2 mm 5 mps 732 mmHg 87%
    12:00 +9°C° 0 mm 6 mps 731 mmHg 80%
    13:00 +9°C° 0 mm 6 mps 731 mmHg 74%
    14:00 +10°C° 0 mm 6 mps 730 mmHg 68%
    15:00 +9°C° 0 mm 5 mps 730 mmHg 73%
    16:00 +8°C° 0 mm 4 mps 730 mmHg 78%
    17:00 +7°C° 0 mm 3 mps 730 mmHg 83%
    18:00 +6°C° 0 mm 4 mps 730 mmHg 86%
    19:00 +6°C° 0 mm 5 mps 730 mmHg 90%
    20:00 +5°C° 0 mm 5 mps 730 mmHg 93%
    21:00 +5°C° 0 mm 5 mps 730 mmHg 93%
    22:00 +5°C° 0 mm 5 mps 730 mmHg 93%
    23:00 +4°C° 0 mm 4 mps 730 mmHg 93%

    25 January, Friday

    Time Temperature Precipitation Wind Pressure Humidity
    00:00 +4°C° 0 mm 4 mps 730 mmHg 94%
    01:00 +4°C° 0 mm 4 mps 730 mmHg 95%
    02:00 +3°C° 0 mm 4 mps 730 mmHg 95%
    03:00 +2°C° 0 mm 5 mps 730 mmHg 95%
    04:00 +3°C° 0 mm 5 mps 730 mmHg 96%
    05:00 +3°C° 0 mm 5 mps 730 mmHg 96%
    06:00 +3°C° 0 mm 5 mps 730 mmHg 96%
    07:00 +3°C° 0 mm 5 mps 730 mmHg 96%
    08:00 +4°C° 0 mm 4 mps 730 mmHg 96%
    09:00 +4°C° 0.2 mm 4 mps 730 mmHg 93%
    10:00 +5°C° 0.2 mm 4 mps 730 mmHg 91%
    11:00 +6°C° 0.2 mm 4 mps 731 mmHg 89%
    12:00 +6°C° 0.5 mm 4 mps 730 mmHg 90%
    13:00 +7°C° 0.5 mm 3 mps 730 mmHg 92%
    14:00 +7°C° 0.5 mm 2 mps 730 mmHg 94%
    15:00 +7°C° 0 mm 3 mps 730 mmHg 95%
    16:00 +7°C° 0 mm 3 mps 729 mmHg 96%
    17:00 +7°C° 0 mm 3 mps 729 mmHg 97%
    18:00 +7°C° 0 mm 3 mps 729 mmHg 97%
    19:00 +7°C° 0 mm 3 mps 729 mmHg 96%
    20:00 +5°C° 0 mm 3 mps 729 mmHg 96%
    21:00 +5°C° 1.1 mm 4 mps 729 mmHg 96%
    22:00 +5°C° 1.1 mm 4 mps 729 mmHg 96%
    23:00 +5°C° 1.1 mm 5 mps 729 mmHg 96%
    Show more